When you browse on this site, cookies collect data to enhance your experience and personalize the content and advertising you see.
Visit our Privacy Policy to learn more. By continuing to use the site, you agree to this use of cookies and data.
  • In Hungary
  • List of Countries
  • For 7 days
  • Water Temperature
  • Weather Map
  • News
  • Weather Widgets
  • user-avatar
    Login

    Hourly Weather Demin

    Today, 22 October, Tuesday

    Time Temperature Precipitation Wind Pressure Humidity
    00:00 +12°C° 0 mm 2 mps 762 mmHg 68%
    01:00 +12°C° 0 mm 2 mps 761 mmHg 68%
    02:00 +10°C° 0 mm 2 mps 761 mmHg 69%
    03:00 +10°C° 0 mm 2 mps 761 mmHg 72%
    04:00 +10°C° 0 mm 2 mps 761 mmHg 72%
    05:00 +10°C° 0 mm 2 mps 761 mmHg 73%
    06:00 +10°C° 0 mm 2 mps 761 mmHg 74%
    07:00 +12°C° 0 mm 2 mps 761 mmHg 70%
    08:00 +13°C° 0 mm 2 mps 761 mmHg 66%
    09:00 +13°C° 0 mm 3 mps 761 mmHg 62%
    10:00 +14°C° 0 mm 3 mps 761 mmHg 58%
    11:00 +17°C° 0 mm 3 mps 761 mmHg 53%
    12:00 +18°C° 0 mm 3 mps 761 mmHg 49%
    13:00 +19°C° 0 mm 3 mps 760 mmHg 48%
    14:00 +19°C° 0 mm 3 mps 760 mmHg 47%
    15:00 +20°C° 0 mm 3 mps 760 mmHg 46%
    16:00 +19°C° 0 mm 3 mps 760 mmHg 51%
    17:00 +17°C° 0 mm 2 mps 760 mmHg 56%
    18:00 +16°C° 0 mm 2 mps 760 mmHg 61%
    19:00 +15°C° 0 mm 2 mps 760 mmHg 63%
    20:00 +15°C° 0 mm 2 mps 760 mmHg 65%
    21:00 +15°C° 0 mm 2 mps 760 mmHg 67%
    22:00 +14°C° 0 mm 1 mps 759 mmHg 68%
    23:00 +14°C° 0 mm 1 mps 759 mmHg 68%

    Tomorrow, 23 October, Wednesday

    Time Temperature Precipitation Wind Pressure Humidity
    00:00 +14°C° 0 mm 1 mps 759 mmHg 69%
    01:00 +14°C° 0 mm 1 mps 759 mmHg 71%
    02:00 +13°C° 0 mm 1 mps 759 mmHg 73%
    03:00 +13°C° 0 mm 1 mps 760 mmHg 75%
    04:00 +12°C° 0 mm 1 mps 759 mmHg 77%
    05:00 +12°C° 0 mm 1 mps 759 mmHg 79%
    06:00 +12°C° 0 mm 1 mps 759 mmHg 81%
    07:00 +13°C° 0 mm 1 mps 759 mmHg 77%
    08:00 +14°C° 0 mm 1 mps 760 mmHg 73%
    09:00 +15°C° 0 mm 1 mps 760 mmHg 69%
    10:00 +16°C° 0 mm 1 mps 760 mmHg 64%
    11:00 +17°C° 0 mm 0 mps 760 mmHg 60%
    12:00 +18°C° 0 mm 0 mps 760 mmHg 55%
    13:00 +20°C° 0 mm 1 mps 759 mmHg 54%
    14:00 +21°C° 0 mm 1 mps 759 mmHg 53%
    15:00 +21°C° 0 mm 1 mps 759 mmHg 52%
    16:00 +20°C° 0 mm 1 mps 759 mmHg 57%
    17:00 +19°C° 0 mm 1 mps 758 mmHg 61%
    18:00 +18°C° 0 mm 1 mps 758 mmHg 65%
    19:00 +16°C° 0 mm 1 mps 758 mmHg 67%
    20:00 +16°C° 0 mm 1 mps 759 mmHg 69%
    21:00 +15°C° 0 mm 1 mps 759 mmHg 70%
    22:00 +15°C° 0 mm 2 mps 759 mmHg 72%
    23:00 +15°C° 0 mm 2 mps 758 mmHg 73%

    Day after tomorrow, 24 October, Thursday

    Time Temperature Precipitation Wind Pressure Humidity
    00:00 +14°C° 0 mm 2 mps 758 mmHg 75%
    01:00 +14°C° 0 mm 2 mps 758 mmHg 76%
    02:00 +14°C° 0 mm 2 mps 758 mmHg 77%
    03:00 +13°C° 0 mm 2 mps 758 mmHg 78%
    04:00 +13°C° 0 mm 2 mps 758 mmHg 79%
    05:00 +13°C° 0 mm 2 mps 758 mmHg 80%
    06:00 +12°C° 0 mm 3 mps 758 mmHg 81%
    07:00 +14°C° 0 mm 2 mps 758 mmHg 76%
    08:00 +15°C° 0 mm 2 mps 758 mmHg 72%
    09:00 +16°C° 0 mm 2 mps 758 mmHg 67%
    10:00 +17°C° 0 mm 2 mps 758 mmHg 62%
    11:00 +18°C° 0 mm 3 mps 758 mmHg 57%
    12:00 +20°C° 0 mm 3 mps 758 mmHg 52%
    13:00 +20°C° 0 mm 3 mps 757 mmHg 50%
    14:00 +21°C° 0 mm 3 mps 757 mmHg 48%
    15:00 +21°C° 0 mm 3 mps 757 mmHg 47%
    16:00 +20°C° 0 mm 2 mps 757 mmHg 51%
    17:00 +19°C° 0 mm 2 mps 757 mmHg 55%
    18:00 +18°C° 0 mm 1 mps 756 mmHg 59%
    19:00 +17°C° 0 mm 2 mps 756 mmHg 61%
    20:00 +17°C° 0 mm 2 mps 756 mmHg 62%
    21:00 +16°C° 0 mm 2 mps 756 mmHg 63%
    22:00 +16°C° 0 mm 2 mps 756 mmHg 65%
    23:00 +16°C° 0 mm 2 mps 756 mmHg 67%

    25 October, Friday

    Time Temperature Precipitation Wind Pressure Humidity
    00:00 +15°C° 0 mm 2 mps 756 mmHg 69%
    01:00 +15°C° 0 mm 1 mps 756 mmHg 69%
    02:00 +15°C° 0 mm 1 mps 756 mmHg 69%
    03:00 +15°C° 0 mm 1 mps 756 mmHg 69%
    04:00 +15°C° 0 mm 1 mps 756 mmHg 70%
    05:00 +15°C° 0 mm 1 mps 756 mmHg 72%
    06:00 +14°C° 0 mm 1 mps 756 mmHg 73%
    07:00 +15°C° 0 mm 1 mps 756 mmHg 71%
    08:00 +15°C° 0 mm 1 mps 756 mmHg 69%
    09:00 +16°C° 0 mm 1 mps 756 mmHg 67%
    10:00 +16°C° 0.1 mm 1 mps 756 mmHg 65%
    11:00 +18°C° 0.1 mm 1 mps 756 mmHg 64%
    12:00 +18°C° 0.1 mm 1 mps 756 mmHg 62%
    13:00 +18°C° 0 mm 1 mps 756 mmHg 61%
    14:00 +18°C° 0 mm 1 mps 756 mmHg 61%
    15:00 +18°C° 0 mm 1 mps 756 mmHg 60%
    16:00 +17°C° 0 mm 2 mps 756 mmHg 61%
    17:00 +16°C° 0 mm 2 mps 756 mmHg 62%
    18:00 +15°C° 0 mm 2 mps 756 mmHg 64%
    19:00 +15°C° 0 mm 2 mps 757 mmHg 63%
    20:00 +15°C° 0 mm 2 mps 757 mmHg 61%
    21:00 +14°C° 0 mm 2 mps 757 mmHg 60%
    22:00 +14°C° 0 mm 2 mps 757 mmHg 62%
    23:00 +13°C° 0 mm 2 mps 757 mmHg 63%

    26 October, Saturday

    Time Temperature Precipitation Wind Pressure Humidity
    00:00 +13°C° 0 mm 2 mps 757 mmHg 64%
    01:00 +12°C° 0 mm 3 mps 757 mmHg 67%
    02:00 +12°C° 0 mm 3 mps 757 mmHg 70%
    03:00 +11°C° 0 mm 3 mps 758 mmHg 73%
    04:00 +11°C° 0 mm 3 mps 758 mmHg 76%
    05:00 +10°C° 0 mm 3 mps 758 mmHg 79%
    06:00 +10°C° 0 mm 3 mps 758 mmHg 82%
    07:00 +10°C° 0 mm 3 mps 758 mmHg 78%
    08:00 +11°C° 0 mm 3 mps 758 mmHg 74%
    09:00 +12°C° 0 mm 3 mps 758 mmHg 70%
    10:00 +14°C° 0 mm 3 mps 758 mmHg 63%
    11:00 +16°C° 0 mm 3 mps 758 mmHg 55%
    12:00 +17°C° 0 mm 3 mps 759 mmHg 48%
    13:00 +18°C° 0 mm 3 mps 758 mmHg 47%
    14:00 +18°C° 0 mm 3 mps 758 mmHg 47%
    15:00 +18°C° 0 mm 2 mps 758 mmHg 46%
    16:00 +17°C° 0 mm 2 mps 758 mmHg 50%
    17:00 +15°C° 0 mm 2 mps 758 mmHg 54%
    18:00 +14°C° 0 mm 2 mps 758 mmHg 58%
    19:00 +14°C° 0 mm 2 mps 758 mmHg 61%
    20:00 +13°C° 0 mm 2 mps 758 mmHg 65%
    21:00 +12°C° 0 mm 2 mps 758 mmHg 68%
    22:00 +12°C° 0 mm 2 mps 758 mmHg 70%
    23:00 +12°C° 0 mm 1 mps 758 mmHg 72%

    27 October, Sunday

    Time Temperature Precipitation Wind Pressure Humidity
    00:00 +11°C° 0 mm 1 mps 758 mmHg 75%
    01:00 +11°C° 0 mm 1 mps 758 mmHg 75%
    02:00 +11°C° 0 mm 1 mps 758 mmHg 74%
    03:00 +10°C° 0 mm 1 mps 757 mmHg 74%
    04:00 +10°C° 0 mm 1 mps 757 mmHg 75%
    05:00 +10°C° 0 mm 1 mps 757 mmHg 75%
    06:00 +10°C° 0 mm 1 mps 757 mmHg 75%
    07:00 +11°C° 0 mm 1 mps 757 mmHg 71%
    08:00 +12°C° 0 mm 2 mps 757 mmHg 66%
    09:00 +13°C° 0 mm 2 mps 757 mmHg 61%
    10:00 +14°C° 0 mm 2 mps 757 mmHg 57%
    11:00 +16°C° 0 mm 3 mps 757 mmHg 53%
    12:00 +17°C° 0 mm 3 mps 757 mmHg 48%
    13:00 +17°C° 0 mm 3 mps 756 mmHg 47%
    14:00 +18°C° 0 mm 3 mps 756 mmHg 46%
    15:00 +18°C° 0 mm 3 mps 755 mmHg 46%
    16:00 +17°C° 0 mm 3 mps 755 mmHg 50%
    17:00 +14°C° 0 mm 3 mps 755 mmHg 55%
    18:00 +13°C° 0 mm 3 mps 754 mmHg 59%
    19:00 +12°C° 0 mm 3 mps 754 mmHg 62%
    20:00 +12°C° 0 mm 3 mps 754 mmHg 65%
    21:00 +11°C° 0 mm 3 mps 754 mmHg 67%
    22:00 +11°C° 0 mm 3 mps 754 mmHg 69%
    23:00 +11°C° 0 mm 3 mps 753 mmHg 71%

    28 October, Monday

    Time Temperature Precipitation Wind Pressure Humidity
    00:00 +10°C° 0 mm 3 mps 753 mmHg 73%
    01:00 +10°C° 0 mm 3 mps 753 mmHg 75%
    02:00 +10°C° 0 mm 3 mps 752 mmHg 78%
    03:00 +10°C° 0 mm 3 mps 752 mmHg 80%
    04:00 +10°C° 0 mm 3 mps 751 mmHg 82%
    05:00 +10°C° 0 mm 4 mps 751 mmHg 83%
    06:00 +10°C° 0 mm 4 mps 750 mmHg 85%
    07:00 +10°C° 0 mm 5 mps 750 mmHg 79%
    08:00 +12°C° 0 mm 5 mps 750 mmHg 73%
    09:00 +13°C° 0 mm 6 mps 750 mmHg 67%
    10:00 +13°C° 0 mm 6 mps 749 mmHg 67%
    11:00 +13°C° 0 mm 5 mps 749 mmHg 68%
    12:00 +13°C° 0 mm 5 mps 749 mmHg 69%
    13:00 +14°C° 0.1 mm 6 mps 749 mmHg 63%
    14:00 +14°C° 0.1 mm 7 mps 749 mmHg 57%
    15:00 +14°C° 0.1 mm 7 mps 749 mmHg 51%
    16:00 +13°C° 0 mm 6 mps 750 mmHg 50%
    17:00 +10°C° 0 mm 5 mps 750 mmHg 48%
    18:00 +10°C° 0 mm 4 mps 750 mmHg 47%
    19:00 +8°C° 0 mm 4 mps 750 mmHg 50%
    20:00 +8°C° 0 mm 3 mps 751 mmHg 52%
    21:00 +8°C° 0 mm 3 mps 751 mmHg 55%
    22:00 +7°C° 0 mm 3 mps 751 mmHg 56%
    23:00 +7°C° 0 mm 3 mps 751 mmHg 57%
    Show more